STARLINK-32415, 61861

Orbit data source: Space-Track

STARLINK-32415, 61861 is a payload satellite owned by SpaceX/Seattle (US) in LEO that was launched on Thu, 07 Nov 2024 UTC via an FALCON 9 launch vehicle from the Air Force Eastern Test Range (AFETR). Payload-class satellites include a variety of spacecraft equipped with specific instruments for various scientific and technological missions. These include communications satellites like Starlink; space stations such as the ISS; scientific satellites like the Hubble; Earth observation satellites from companies like Planet Labs, Umbra, and HawkEye 360; GPS; miniature CubeSats for education and research; and military/defense satellites.

Loading next visibility...
Identifier
61861, 2024-202S
Orbit
LEO
Country
Flag of USUS
Related business
Manufacturer
SpaceX/Seattle
Mission
Operational Commercial Communications
Bus & Motor
STARLINK V2M, Unknown motor
Mass
730 kg wet, ~700 kg dry
Launch date (UTC)
2024-11-07 (11 months ago)
Launch vehicle
FALCON 9
Launch site
Air Force Eastern Test Range (AFETR)
Object type
Payload
Rocket body
Debris
Shape & HBR
Box + 2 Pan, 17.7 m
Radar Cross Section
33.884 m², Large (>1 m²)

Expand to show TLE details & history
Last TLE update: 11 hours ago

TLE from 11 hours ago
0 STARLINK-32415
1 61861U 24202S   25286.55275895 -.00000728  00000-0 -16932-4 0  9995
2 61861  43.0030 349.0540 0000319 314.4966  45.5860 15.27582226 52820
Epoch: 2025-10-13T13:15Z
TLE epoch observation values (Epoch: 2025-10-13T13:15:58.373Z)
Latitude
0.00002°
Longitude
127.70691°
Altitude
482.665 km
Speed
7.626 km/s
True Right ascension
23h 16m 12s
True Declination
0° 00' 00"
Sunlit
Object was in full shadow at epoch
Visualization orbit readout
Latitude
Unknown
Longitude
Unknown
Altitude
Unknown
Speed
Unknown
Apparent Right ascension
Unknown
Apparent Declination
Unknown
Sunlit
N/A
Visualization observer readout
Local Sidereal Time
18:49:16
Azimuth
Unknown
Elevation
Unknown
Doppler factor
Unknown
Orbital elements
Apogee altitude
485.206 km
Perigee altitude
484.768 km
Semi-major axis
6,863.124 km
Eccentricity
0.00003
Inclination
43.003°
RAAN
349.054°
Arg. of periapsis
314.4966°
True anomaly
45.58861°
Mean anomaly
45.586°
Eccentric anomaly
45.58731°
Mean motion
3.81734 °/min
Orbital period
94.31 mins
BSTAR
-0.000016932
Loading maneuver chart data...
Computing Atmospheric mass density...
Loading historical data...
Loading historical data...
Loading historical data...
Loading historical data...
Loading historical data...
Loading historical data...
Loading historical data...

Documentation

Showing up to 5 results
|